Cottonwood, AZ

11:41 PM MST on May 04, 2015 (GMT -0700)
Sedona | | Change Station
CLOSE
Current Station
Airport
Location: Sedona,
Elevation: 4826 ft
Nearby Weather Stations

Elev 4826 ft 34.85 °N, 111.79 °W | Updated 6 minutes ago

Overcast
Overcast
52 °F
Feels Like 52 °F
N
0
Wind Variable Wind from North

Today
High -- | Low -- °F
--% Chance of Precip.
Yesterday
High -- | Low -- °F
Precip. -- in
5:34 AM 7:15 PM
Full, 99% visible
Pressure 29.98 in
Visibility 10.0 miles
Clouds Mostly Cloudy 3300 ft
Mostly Cloudy 3900 ft
Overcast 5000 ft
Dew Point 48 °F
Humidity 88%
Rainfall 0.20 in
Snow Depth Not available.
UV 0 out of 12
Pollen 4.30 out of 12
Air Quality Not available.
Flu Activity Local Activity
METAR KSEZ 050635Z AUTO 00000KT 10SM -RA BKN033 BKN039 OVC050 11/09 A2998 RMK AO2 P0004

More Conditions Fewer Conditions

Pressure 29.98 in
Visibility 10.0 miles
Clouds Mostly Cloudy 3300 ft
Mostly Cloudy 3900 ft
Overcast 5000 ft
Dew Point 48 °F
Humidity 88%
Rainfall 0.20 in
Snow Depth Not available.
UV 0 out of 12
Pollen 4.30 out of 12
Air Quality Not available.
Flu Activity Local Activity
METAR KSEZ 050635Z AUTO 00000KT 10SM -RA BKN033 BKN039 OVC050 11/09 A2998 RMK AO2 P0004

More Conditions Fewer Conditions

Nepal has a long way to go to dig out and rebuild from a devastating earthquake. We have teamed up with several charities and organizations to make contributing to the relief effort as easy as possible.
How you can help: Portlight Strategies | Red Cross

10-Day Weather Forecast

Almanac

Astronomy

May. 04, 2015 Rise Set
Actual Time
Civil Twilight
Nautical Twilight
Astronomical Twilight
Moon
Length of Visible Light
Length of Day
Tomorrow will be .
, % of the Moon is Illuminated

Today's Extremes

State Highs State Lows

Community

WunderPhotos

Upload Photos

1,818,814 photos uploaded!

WunderBlogs® & News

Nearby

Air Quality

  Air Quality AQ Index Pollutant
Not available.

Snow Depth

Station Depth Elevation

Earthquake Activity

City Distance Mag. Time & Date
Minimum magnitude displayed is 2.5.

Coastal Water Temperatures

Place Temperature

Stations

Nearby Weather Stations

Station Location Temp. Windchill Dew Point Humidity Wind Precip. Elev Updated Type